Weather in Bozkurt

Turkey     37°49′33″N   29°36′35″E
temp.,
°C
wind,
m/s
gust,
m/s
humid.,
%
clouds,
%
prec.,
mm/h
press.,
hPa
HPBL,
m
17 may, mon
mon1700:00+13nnw116767 0.1 101077
03:00+11nne01772 0.1 101145
06:00+9sw11851 0.0 101110
09:00+14nw225895 0.0 1012702
12:00+19nw343649 0.0 10111408
15:00+22nw45240 0.0 10101606
18:00+22nw55295 0.0 10101421
21:00+16sw1140100 0.0 101211
18 may, tue
tue1800:00+15sw22440 0.0 101211
03:00+13ssw22523 0.0 101215
06:00+13s22580 0.0 101217
09:00+21sw24344 0.0 1012827
12:00+26wnw462339 0.0 10101831
15:00+28w79205 0.0 10092664
18:00+26w810251 0.0 10102171
21:00+18sw22466 0.0 101322
19 may, wed
wed1900:00+16ssw22535 0.0 101414
03:00+14sse115945 0.0 101511
06:00+13ese22655 0.0 101513
09:00+20e22408 0.0 1015638
12:00+26n22206 0.0 10131589
15:00+29nnw44154 0.0 10112268
18:00+28nw44180 0.0 10101524
21:00+20sw22290 0.0 101111
20 may, thu
thu2000:00+18sw22320 0.0 101211
03:00+16ssw11410 0.0 101111
06:00+15sse22420 0.0 101115
09:00+23ssw12240 0.0 1010659
12:00+28w35132 0.0 10092125
15:00+31wnw56110 0.0 10072878
18:00+28wnw76150 0.0 10071855
21:00+20sw22300 0.0 101013
21 may, fri
fri2100:00+17s22330 0.0 101115
03:00+15s22340 0.0 101017
06:00+15s22291 0.0 101018
09:00+25se23162 0.0 1009682
12:00+29wsw47163 0.0 10072547
15:00+30ssw7111595 0.0 10053165
18:00+26sw8112187 0.0 10061859
21:00+19wsw1137100 0.0 100718